Location: Capvern
(43.1036°N, 0.3160°E)
Time: 11:27:29
(UTC+00:00)

Aureole 2 - Pass Details

Date: 16 October 2021
Orbit: 365 x 885 km, 73.9° (Epoch: 03 December)

Event Time Altitude Azimuth Distance (km) Brightness Sun altitude
Rises 17:53:03 0° 338° (NNW) 2,220 8.2 -7.9°
Reaches altitude 10° 17:55:00 10° 337° (NNW) 1,375 7.1 -8.2°
Maximum altitude 17:57:56 77° 252° (WSW) 397 4.2 -8.7°
Drops below altitude 10° 18:01:05 10° 165° (SSE) 1,461 6.9 -9.3°
Sets 18:03:13 0° 164° (SSE) 2,380 7.9 -9.7°
